Location: Newark
(7.0858°N, 171.3717°E)
Time: 05:06:56
(UTC+00:00)

Courier 1B - Pass Details

Date: 01 December 2020
Orbit: 962 x 1209 km, 28.3° (Epoch: 20 January)

Event Time Altitude Azimuth Distance (km) Brightness Sun altitude
Rises 11:58:54 0° 314° (NW) 3,749 - -74.0°
Reaches altitude 10° 12:03:44 10° 344° (NNW) 2,858 - -74.4°
Maximum altitude 12:06:16 12° 5° (N) 2,739 - -74.6°
Drops below altitude 10° 12:08:52 10° 27° (NNE) 2,927 - -74.7°
Sets 12:13:58 0° 56° (ENE) 3,953 - -75.0°
